, AK

(GMT )
Cape Lisburne

Weather History for PALU - April, 2013

Change the Weather History Date:

Friday, April 19, 2013

  Actual Average Record
Temperature  
Mean Temperature 12 °F -  
Max Temperature 21 °F 16 °F 32 °F (2008)
Min Temperature 4 °F 6 °F -8 °F (2002)
Degree Days  
Heating Degree Days 52    
Moisture  
Dew Point 4 °F    
Average Humidity 76    
Maximum Humidity 90    
Minimum Humidity 51    
Precipitation  
Precipitation 0.00 in - - ()
Sea Level Pressure  
Sea Level Pressure 30.52 in    
Wind  
Wind Speed 5 mph (SSW)    
Max Wind Speed 29 mph    
Max Gust Speed 34 mph    
Visibility 10 miles    
Events      
Averages and records for this station are not official NWS values.
T = Trace of Precipitation, MM = Missing Value Source: NWS Daily Summary

Daily Weather History Graph

Daily Weather History Graph

Search for Another Location

Airport or City:

Trip Planner

Search our weather history database for the weather conditions in past years. The results will help you decide how hot, cold, wet, or windy it might be!

Date:

Astronomy

Apr. 19, 2013 Rise Set
Actual Time 6:46 AM AKDT 11:23 PM AKDT
Civil Twilight 5:24 AM AKDT 12:47 AM AKDT
Nautical Twilight Sun does not rise Sun does not rise
Astronomical Twilight Sun does not rise Sun does not rise
Moon 2:18 PM AKDT (4/19) 6:18 AM AKDT (4/19)
Length of Visible Light 19h 22m
Length of Day
16h 36m
Waxing Gibbous, 63% of the Moon is Illuminated
Apr 19
Waxing Gibbous
Apr 25
Full
May 2
Last Quarter
May 9
New
May 17
First Quarter

Hourly Weather History & Observations

Time (AKDT) Temp. Windchill Dew Point Humidity Pressure Visibility Wind Dir Wind Speed Gust Speed Precip Events Conditions
12:55 AM 6.3 °F - 0.3 °F 77% 30.58 in 10.0 mi ESE 2.3 mph - N/A   Clear
1:55 AM 6.4 °F - 1.2 °F 79% 30.58 in 10.0 mi Variable 1.2 mph - N/A   Clear
2:55 AM 4.6 °F -2.5 °F 0.7 °F 84% 30.58 in 10.0 mi ESE 3.5 mph - N/A   Clear
3:55 AM 5.4 °F - 1.0 °F 82% 30.58 in 10.0 mi East 2.3 mph - N/A   Clear
4:55 AM 5.7 °F - 1.6 °F 83% 30.57 in 10.0 mi East 1.2 mph - N/A   Clear
5:55 AM 5.2 °F - 1.0 °F 83% 30.57 in 10.0 mi ENE 1.2 mph - N/A   Clear
6:55 AM 4.5 °F - 1.4 °F 87% 30.56 in 10.0 mi ENE 1.2 mph - N/A   Clear
7:55 AM 5.7 °F - 1.6 °F 83% 30.56 in 10.0 mi WSW 1.2 mph - N/A   Clear
8:55 AM 7.5 °F - 3.0 °F 82% 30.56 in 10.0 mi Variable 1.2 mph - N/A   Clear
9:55 AM 6.6 °F - 0.7 °F 77% 30.55 in 10.0 mi Variable 2.3 mph - N/A   Clear
10:55 AM 4.8 °F -2.3 °F -0.0 °F 80% 30.55 in 10.0 mi Variable 3.5 mph - N/A   Clear
11:55 AM 6.8 °F - 4.3 °F 89% 30.54 in 10.0 mi SSW 2.3 mph - N/A   Clear
12:55 PM 8.8 °F - 5.4 °F 86% 30.54 in 10.0 mi NW 2.3 mph - N/A   Clear
1:55 PM 9.9 °F 1.6 °F 5.2 °F 81% 30.53 in 10.0 mi NNW 4.6 mph - N/A   Clear
2:55 PM 10.6 °F 4.3 °F 5.9 °F 81% 30.52 in 10.0 mi NW 3.5 mph - N/A   Clear
3:55 PM 12.4 °F 6.3 °F 8.8 °F 85% 30.51 in 10.0 mi North 3.5 mph - N/A   Clear
4:55 PM 12.0 °F 5.9 °F 9.5 °F 90% 30.49 in 10.0 mi ENE 3.5 mph - N/A   Clear
5:55 PM 21.4 °F 7.5 °F 11.7 °F 66% 30.47 in 10.0 mi WSW 16.1 mph 20.7 mph N/A   Clear
6:55 PM 21.6 °F 6.5 °F 11.3 °F 65% 30.45 in 10.0 mi SW 19.6 mph - N/A   Clear
7:55 PM 19.6 °F 4.7 °F 12.0 °F 72% 30.44 in 10.0 mi SSW 17.3 mph - N/A   Clear
8:55 PM 19.9 °F 5.2 °F 7.2 °F 58% 30.44 in 10.0 mi SSW 17.3 mph - N/A   Clear
9:55 PM 19.6 °F 3.9 °F 6.4 °F 57% 30.42 in 10.0 mi SSW 19.6 mph 25.3 mph N/A   Clear
10:55 PM 18.5 °F 0.2 °F 3.2 °F 51% 30.41 in 10.0 mi SW 26.5 mph - N/A   Clear
11:55 PM 19.0 °F 0.3 °F 3.4 °F 51% 30.40 in 10.0 mi SW 28.8 mph 34.5 mph N/A   Clear